Temperature
5 5 5 5 6 7 8 8 7 7 6 5 5 5 5 5 4 4 4 4 4 5 5 5 6 6 6 6 6 6 6 6 6 7 7 6 6 6 6 6 6 6 6
2 3 4 4 4 5 6 7 6 6 5 5 4 4 3 3 3 2 2 2 2 3 3 4 5 5 4 5 5 5 6 6 6 6 6 6 5 5 6 6 6 6 6
-0 -0 1 3 3 2 4 4 4 5 4 3 3 2 2 1 0 0 1 1 1 1 1 2 2 3 3 3 3 4 4 5 5 5 5 5 4 4 5 5 5 4 5
-1 -2 -2 -1 -1 1 2 3 2 2 2 1 1 0 -0 -1 -1 -0 0 0 0 1 1 1 1 1 1 1 2 2 3 3 3 4 4 4 3 3 3 3 4 3 3
-2 -2 -2 -2 -2 -1 1 1 0 0 1 -1 -1 -2 -1 -1 -1 -1 -1 -1 -0 -0 -0 -0 -0 -0 -0 -0 0 1 1 2 2 3 2 2 2 2 2 2 2 2 2
-3 -4 -4 -3 -3 -2 -1 -2 -2 -2 -1 -2 -2 -2 -2 -3 -3 -2 -2 -2 -2 -2 -2 -2 -1 -1 -1 -1 -1 -0 0 1 1 2 2 2 1 1 0 0 -0 0 0
-4 -5 -4 -4 -4 -4 -3 -4 -4 -3 -3 -3 -3 -3 -3 -4 -4 -4 -3 -3 -3 -3 -3 -3 -3 -2 -3 -3 -2 -2 -2 -1 -1 -0 -0 -1 -1 -1 -1 -1 -1 -2 -1
-5 -5 -5 -5 -5 -5 -5 -4 -4 -4 -4 -4 -4 -4 -4 -5 -5 -5 -5 -4 -5 -4 -4 -3 -3 -4 -5 -5 -5 -5 -4 -4 -3 -2 -3 -3 -3 -2 -2 -3 -3 -2 -2
-6 -6 -6 -6 -5 -5 -5 -5 -5 -5 -5 -5 -5 -5 -6 -6 -6 -6 -6 -7 -7 -7 -6 -5 -5 -6 -7 -5 -5 -6 -6 -5 -5 -4 -3 -3 -3 -3 -2 -3 -4 -3 -2
-7 -7 -7 -6 -5 -5 -6 -6 -6 -6 -6 -6 -6 -6 -6 -7 -7 -7 -8 -8 -8 -8 -8 -7 -7 -7 -8 -7 -6 -7 -7 -7 -6 -5 -4 -4 -4 -4 -4 -4 -5 -5 -5
-8 -7 -7 -7 -7 -7 -7 -7 -8 -8 -8 -7 -7 -7 -8 -8 -8 -9 -9 -9 -9 -9 -9 -9 -9 -8 -8 -7 -7 -8 -8 -7 -6 -5 -5 -5 -5 -5 -6 -6 -6 -7 -6
-9 -8 -8 -9 -8 -8 -9 -9 -9 -9 -9 -9 -9 -9 -9 -9 -9 -9 -10 -10 -10 -10 -10 -10 -10 -8 -8 -8 -8 -7 -7 -7 -7 -6 -6 -6 -6 -6 -6 -5 -5 -6 -6
-10 -10 -10 -10 -9 -9 -10 -10 -10 -10 -10 -10 -10 -10 -10 -10 -10 -10 -10 -10 -11 -10 -11 -10 -9 -9 -9 -9 -8 -8 -8 -8 -8 -8 -9 -9 -8 -7 -7 -7 -7 -6 -6
-11 -11 -11 -10 -10 -10 -10 -10 -11 -11 -11 -10 -10 -10 -11 -11 -11 -11 -10 -10 -11 -11 -11 -10 -10 -10 -10 -9 -9 -9 -9 -10 -10 -10 -11 -10 -9 -9 -9 -9 -9 -9 -7
-11 -11 -11 -11 -11 -11 -11 -11 -11 -11 -11 -11 -11 -11 -11 -11 -11 -11 -11 -10 -10 -11 -11 -12 -12 -12 -12 -12 -12 -11 -11 -11 -12 -12 -12 -12 -12 -12 -11 -11 -11 -11 -11
-12 -12 -12 -12 -12 -12 -12 -12 -12 -11 -12 -12 -12 -12 -12 -12 -11 -11 -11 -11 -11 -11 -12 -12 -13 -13 -12 -12 -12 -12 -13 -13 -13 -13 -12 -13 -13 -13 -13 -12 -12 -12 -11
-12 -13 -13 -13 -13 -13 -13 -13 -13 -13 -13 -12 -13 -13 -13 -13 -12 -12 -12 -12 -12 -12 -12 -13 -13 -14 -13 -13 -13 -13 -13 -14 -13 -13 -13 -13 -14 -14 -14 -13 -13 -12 -12
-14 -14 -13 -13 -14 -14 -14 -14 -14 -14 -14 -13 -14 -13 -13 -14 -13 -13 -13 -13 -13 -13 -14 -14 -14 -15 -15 -15 -15 -15 -15 -15 -15 -15 -14 -14 -15 -15 -14 -14 -13 -13 -12
-15 -14 -14 -14 -15 -15 -15 -15 -15 -15 -15 -15 -14 -14 -14 -14 -14 -14 -14 -14 -14 -14 -14 -15 -15 -15 -15 -16 -16 -16 -16 -16 -16 -15 -15 -14 -15 -15 -14 -14 -14 -13 -13
-15 -15 -15 -15 -16 -15 -15 -15 -15 -15 -15 -15 -15 -15 -15 -14 -14 -14 -14 -14 -15 -15 -15 -15 -15 -15 -16 -16 -16 -16 -16 -16 -16 -16 -15 -15 -15 -15 -15 -15 -14 -14 -13
-15 -16 -16 -16 -16 -16 -15 -16 -16 -16 -16 -15 -15 -15 -15 -15 -14 -14 -15 -15 -15 -15 -15 -15 -15 -16 -16 -16 -16 -17 -17 -17 -17 -16 -16 -15 -15 -15 -15 -14 -14 -14 -13
-16 -16 -16 -16 -16 -16 -16 -16 -16 -16 -16 -15 -15 -16 -16 -16 -15 -15 -15 -15 -15 -16 -16 -16 -16 -16 -16 -16 -17 -17 -17 -17 -16 -16 -16 -15 -14 -14 -14 -13 -13 -13 -13
-16 -16 -16 -16 -16 -16 -16 -16 -16 -16 -16 -16 -16 -16 -16 -16 -16 -16 -16 -16 -16 -16 -16 -17 -17 -17 -17 -17 -17 -17 -17 -17 -16 -16 -16 -15 -14 -14 -13 -13 -13 -13 -13
-15 -16 -16 -16 -16 -16 -16 -16 -16 -15 -16 -16 -16 -16 -16 -16 -16 -17 -17 -17 -17 -17 -17 -17 -17 -17 -17 -17 -17 -17 -16 -16 -16 -15 -14 -14 -13 -13 -13 -13 -13 -13 -12
-15 -16 -15 -15 -15 -16 -16 -16 -16 -15 -16 -16 -15 -16 -16 -16 -16 -16 -16 -17 -17 -17 -17 -17 -17 -17 -17 -16 -16 -16 -16 -15 -15 -14 -14 -13 -13 -13 -13 -13 -13 -12 -12
-16 -16 -15 -15 -15 -15 -16 -16 -16 -15 -15 -15 -15 -15 -16 -16 -16 -16 -16 -16 -16 -16 -16 -16 -16 -16 -16 -16 -16 -15 -15 -15 -14 -13 -13 -13 -13 -14 -13 -13 -12 -12 -12
Wind_Speed
21 17 16 15 14 11 9 7 5 5 1 3 4 6 7 8 9 9 9 8 9 8 7 8 9 9 8 8 9 10 10 11 12 12 10 7 7 8 6 6 6 7 6
21 13 11 11 9 10 9 7 5 6 3 2 3 4 5 6 7 7 8 8 8 7 6 6 7 8 9 9 8 9 10 11 12 13 12 7 7 7 7 6 6 5 7
15 9 3 5 8 9 6 6 4 6 5 1 1 1 3 4 5 5 4 3 3 3 4 3 4 5 7 7 7 7 7 8 9 10 10 7 6 6 7 7 7 7 8
10 7 3 0 5 7 8 8 7 5 4 1 0 4 6 6 6 7 8 7 7 8 9 9 9 9 8 7 4 3 4 7 8 8 8 6 6 5 6 8 8 8 8
7 6 5 4 2 3 8 8 4 3 5 2 3 5 7 7 7 8 8 8 8 8 8 7 8 10 12 11 8 6 4 1 2 3 4 3 4 5 5 6 9 10 10
7 7 6 5 5 6 7 3 2 4 5 3 5 8 9 9 11 12 9 8 8 7 6 5 5 7 9 11 11 10 10 6 3 2 1 2 5 6 5 6 7 9 8
8 8 8 8 7 6 4 0 3 6 5 4 5 7 9 10 12 12 10 6 5 5 4 5 5 6 7 6 7 6 6 6 6 5 4 5 5 7 8 9 9 10 10
8 8 8 7 5 4 6 7 6 5 4 5 7 7 7 9 11 9 7 5 5 5 5 6 7 7 7 10 8 6 5 4 5 5 5 6 7 8 10 11 11 12 12
8 9 9 8 4 5 7 6 4 4 5 5 6 6 6 8 10 8 6 5 4 5 5 7 8 7 11 13 10 8 7 6 4 5 7 8 10 10 9 9 9 10 11
9 9 9 10 7 7 6 5 4 3 3 4 4 5 6 6 7 7 7 5 5 5 5 5 7 10 11 11 9 7 7 8 8 9 8 7 6 6 7 7 8 8 8
9 8 9 10 9 7 6 5 4 3 2 2 2 3 5 6 6 7 7 6 5 5 4 4 5 10 11 10 8 7 9 10 9 8 8 7 6 5 6 6 7 6 8
8 8 8 9 8 7 6 5 5 4 3 3 4 4 4 4 4 5 7 6 7 6 5 4 6 10 10 8 7 9 10 8 7 7 7 7 7 8 8 9 9 9 10
9 9 9 9 8 7 6 6 5 4 4 4 4 4 4 4 4 4 6 6 6 6 5 7 8 9 8 6 8 9 8 6 6 7 7 7 8 9 10 10 10 10 11
9 9 9 9 9 8 6 5 4 4 5 5 4 5 5 5 5 5 6 6 5 5 4 6 8 7 6 6 7 6 5 6 6 7 7 8 8 9 9 9 9 10 11
9 9 9 8 8 7 6 5 5 5 6 6 6 6 7 7 8 10 11 7 4 3 5 6 6 6 6 5 5 6 6 6 7 7 7 8 9 9 9 9 9 10 10
10 9 9 9 8 8 8 7 6 6 9 9 9 9 9 12 14 13 12 4 1 2 4 6 6 6 7 7 7 7 6 7 7 8 8 8 9 9 10 11 10 10 10
11 10 8 9 9 9 8 8 8 8 8 7 9 11 11 12 13 12 7 2 1 3 4 6 7 7 7 7 7 8 8 8 8 8 9 9 9 10 11 11 11 11 12
11 11 10 8 9 9 8 8 8 8 9 9 10 11 11 11 12 11 5 4 4 5 5 6 7 8 8 8 8 8 9 9 9 9 9 10 10 10 11 11 12 13 13
11 10 10 9 8 8 7 7 7 8 9 9 9 9 10 11 12 11 8 6 7 7 7 8 8 8 9 9 9 9 10 10 11 10 10 11 10 10 11 12 13 17 16
10 12 11 8 7 7 7 7 7 8 8 9 9 9 9 11 10 8 8 8 9 9 9 9 9 9 9 9 9 9 10 11 11 11 11 11 11 11 12 14 14 15 15
8 9 9 7 6 6 7 7 8 8 9 10 10 11 14 13 11 11 10 10 9 10 10 10 10 10 10 9 9 10 11 11 11 11 11 11 12 12 12 13 15 15 15
7 7 7 7 7 8 8 8 8 9 10 11 11 12 15 12 10 11 11 11 11 10 10 10 10 10 10 9 10 11 12 12 12 12 12 13 12 13 14 15 15 16 16
9 9 9 8 7 9 9 9 9 10 11 12 11 11 11 10 10 11 12 12 11 11 10 10 10 10 10 9 9 11 12 12 13 14 14 14 14 14 15 16 18 18 17
10 10 10 9 9 9 9 10 10 11 11 11 11 11 11 11 11 12 12 11 11 10 9 9 9 11 12 10 11 12 14 16 16 15 18 16 17 18 17 16 17 18 17
10 10 10 9 9 9 10 11 11 12 11 11 11 11 11 11 11 11 11 10 10 9 9 8 8 9 12 13 14 16 20 24 25 23 17 18 18 16 15 16 15 15 14
11 11 10 10 10 11 11 12 13 13 13 12 12 11 11 11 11 10 9 8 8 8 8 7 8 10 12 13 17 21 25 28 29 26 14 11 12 12 13 12 13 11 10
Wind_Direction
310 271 237 225 215 202 204 174 153 124 73 326 327 313 308 303 293 285 278 276 271 268 265 257 253 250 248 243 237 237 238 240 248 254 261 270 277 276 273 286 292 292 302
324 286 224 195 205 211 192 157 154 123 108 22 341 327 325 319 311 298 281 275 271 271 277 277 272 270 262 255 248 242 241 238 241 250 256 256 270 280 289 295 296 299 295
340 328 280 195 196 209 186 146 127 100 79 36 309 12 37 21 13 3 352 19 38 37 31 9 342 301 272 265 258 252 244 238 239 249 256 254 267 278 290 297 297 297 293
350 343 359 260 188 173 149 105 83 83 84 35 92 102 87 66 49 44 46 53 53 51 47 47 37 26 16 358 346 317 253 229 223 229 244 253 266 279 297 296 297 294 293
1 358 5 2 8 95 82 75 93 97 85 85 80 78 78 65 53 49 50 46 42 44 44 42 38 30 30 34 38 25 10 341 233 230 246 276 294 317 320 328 310 308 303
15 9 5 7 6 31 61 72 112 109 101 111 77 66 64 62 61 53 45 52 49 42 29 18 23 30 23 28 32 31 32 24 16 25 10 303 287 293 308 310 308 306 305
21 15 12 12 8 9 8 214 107 97 109 108 77 66 63 56 52 52 39 38 43 38 17 353 354 9 359 9 11 12 14 8 357 330 296 283 295 299 301 294 292 288 284
21 13 5 3 2 22 39 45 58 84 96 86 70 58 56 46 39 45 27 11 8 7 0 354 348 346 352 347 336 333 332 326 339 323 314 322 327 322 311 302 296 290 288
21 11 358 344 349 68 62 47 51 84 90 81 72 57 46 36 23 17 7 350 351 347 349 360 353 344 359 348 334 328 325 318 322 317 325 319 308 299 296 297 289 287 290
12 7 0 358 24 50 51 43 41 69 90 87 69 43 31 22 18 7 6 359 357 348 346 0 14 1 357 354 346 341 325 326 333 327 320 315 306 301 297 290 295 294 296
4 10 12 10 20 29 35 35 30 28 35 33 17 8 10 10 8 5 8 4 360 349 349 352 7 360 357 359 350 344 340 331 325 322 320 324 327 328 325 322 317 305 289
5 16 18 17 19 16 19 22 18 358 334 313 305 319 346 353 351 346 355 3 351 341 343 339 352 349 347 347 346 350 341 327 325 325 321 326 328 327 326 319 310 299 285
16 21 19 17 19 11 10 13 8 358 344 326 318 322 323 317 301 297 308 306 328 333 339 344 337 333 334 332 339 337 329 328 328 317 313 317 320 318 315 312 311 307 297
20 20 17 16 14 15 9 9 6 360 347 336 324 316 308 303 301 295 292 274 266 295 320 323 323 320 320 317 318 320 325 326 315 305 307 311 313 312 312 317 316 315 308
15 13 11 9 5 1 359 353 345 346 335 325 321 312 307 303 303 301 299 294 277 290 308 304 305 312 313 314 316 318 319 314 304 306 308 308 307 310 311 314 310 308 301
2 6 2 357 353 347 341 339 339 336 333 326 321 314 308 301 299 300 304 317 80 349 303 295 298 304 308 313 314 314 312 305 307 309 303 301 303 305 306 306 305 300 295
353 348 349 349 345 339 335 333 330 331 324 319 322 322 313 305 306 305 319 82 11 319 293 288 288 293 295 298 300 301 302 305 307 298 295 294 292 295 300 299 297 296 292
346 340 340 340 339 335 333 331 329 327 327 325 327 323 319 314 307 301 312 299 284 283 280 276 278 283 286 288 291 294 297 300 298 295 291 286 284 288 293 293 293 293 293
340 338 337 339 341 336 336 334 333 331 327 323 323 322 321 315 305 298 296 294 293 287 280 274 275 279 284 287 289 291 293 294 293 292 288 284 280 282 287 289 289 289 289
342 343 345 348 345 345 343 339 338 332 325 321 318 318 317 309 306 300 295 294 289 285 283 281 280 280 281 283 284 286 289 290 288 284 282 279 276 278 283 286 287 288 287
345 346 348 347 347 340 338 339 335 329 323 318 315 315 314 312 309 306 302 294 287 284 282 282 282 282 282 282 282 283 284 285 284 282 280 276 273 275 280 283 282 281 281
345 342 340 340 337 335 340 334 332 330 327 325 323 320 318 313 307 304 301 298 295 290 287 285 282 279 279 281 284 287 286 285 284 282 279 276 274 277 280 281 279 276 274
342 337 333 330 325 326 326 325 328 329 332 332 328 324 321 318 314 309 305 301 296 291 287 281 278 277 277 278 277 277 276 278 281 285 284 281 277 276 278 277 275 278 279
335 330 323 316 312 314 316 320 321 326 331 329 325 322 319 315 310 307 303 298 293 287 281 275 274 275 279 281 279 276 275 278 281 279 275 268 268 271 274 277 280 279 277
330 329 321 311 306 306 306 307 309 314 318 319 322 324 318 310 307 309 308 303 296 289 284 279 276 278 280 281 280 282 285 287 283 278 272 266 267 271 277 277 277 280 282
326 323 318 311 305 302 301 300 301 302 303 305 312 314 310 310 309 306 309 310 303 298 288 278 277 277 278 281 286 292 295 293 291 293 298 294 288 283 279 280 285 285 284
Height
1422 1421 1423 1426 1429 1428 1427 1426 1427 1428 1431 1431 1430 1430 1429 1429 1428 1426 1426 1426 1426 1427 1427 1427 1427 1430 1431 1432 1432 1433 1434 1435 1435 1436 1436 1435 1433 1434 1434 1432 1431 1430 1428
1415 1411 1412 1414 1419 1420 1420 1420 1423 1422 1424 1425 1425 1424 1422 1421 1420 1419 1418 1418 1419 1420 1420 1420 1421 1424 1425 1427 1427 1427 1428 1428 1429 1430 1430 1429 1427 1428 1427 1426 1425 1423 1424
1411 1408 1407 1406 1407 1412 1414 1413 1415 1416 1418 1419 1419 1418 1416 1416 1416 1416 1414 1414 1414 1414 1414 1415 1416 1418 1420 1421 1421 1420 1420 1421 1422 1422 1424 1424 1423 1423 1422 1421 1420 1419 1419
1407 1405 1403 1402 1402 1404 1407 1407 1411 1413 1413 1415 1417 1415 1412 1413 1414 1413 1411 1411 1411 1409 1410 1411 1412 1412 1413 1413 1413 1413 1414 1415 1416 1416 1418 1418 1418 1419 1417 1418 1417 1415 1415
1405 1403 1402 1401 1400 1400 1399 1403 1408 1409 1409 1415 1416 1413 1411 1411 1411 1411 1410 1409 1408 1408 1409 1410 1410 1409 1408 1408 1408 1408 1408 1409 1410 1410 1411 1411 1413 1413 1413 1412 1411 1409 1409
1405 1403 1401 1400 1399 1398 1397 1403 1405 1405 1407 1415 1414 1411 1410 1409 1408 1409 1408 1407 1407 1408 1409 1409 1409 1407 1405 1405 1404 1404 1404 1405 1405 1405 1405 1406 1407 1408 1407 1406 1406 1405 1403
1406 1405 1402 1400 1399 1399 1400 1404 1404 1404 1409 1414 1412 1410 1409 1409 1408 1407 1408 1408 1408 1407 1407 1407 1406 1404 1402 1401 1401 1401 1401 1401 1402 1402 1401 1401 1402 1403 1402 1401 1401 1401 1397
1409 1407 1405 1403 1402 1402 1404 1404 1404 1407 1410 1410 1409 1409 1408 1408 1407 1406 1406 1406 1406 1405 1404 1403 1402 1401 1399 1398 1399 1398 1398 1399 1398 1398 1398 1397 1397 1396 1396 1396 1395 1394 1391
1410 1409 1407 1406 1405 1404 1404 1405 1407 1408 1409 1408 1408 1408 1408 1406 1405 1405 1404 1403 1402 1402 1400 1398 1398 1398 1396 1394 1395 1396 1396 1396 1394 1393 1390 1390 1391 1391 1391 1391 1391 1390 1387
1411 1410 1409 1408 1406 1406 1406 1407 1407 1407 1407 1407 1406 1407 1406 1405 1404 1403 1402 1401 1400 1399 1398 1396 1395 1394 1392 1392 1392 1392 1393 1394 1391 1389 1387 1386 1386 1386 1386 1386 1386 1385 1382
1414 1411 1409 1408 1408 1408 1407 1406 1405 1405 1405 1404 1404 1404 1403 1402 1401 1401 1400 1399 1399 1397 1395 1395 1393 1392 1391 1389 1390 1390 1389 1389 1387 1385 1384 1383 1382 1382 1381 1380 1379 1377 1375
1416 1413 1411 1410 1409 1408 1407 1404 1403 1403 1403 1403 1403 1403 1401 1400 1400 1399 1398 1398 1397 1396 1394 1394 1392 1390 1389 1389 1388 1386 1385 1385 1383 1382 1381 1379 1378 1377 1375 1374 1372 1370 1368
1418 1415 1413 1411 1408 1407 1406 1404 1403 1403 1402 1402 1402 1401 1400 1400 1399 1397 1396 1396 1394 1393 1391 1390 1389 1388 1387 1386 1385 1384 1383 1381 1379 1379 1378 1375 1373 1371 1369 1367 1365 1363 1362
1420 1417 1415 1413 1410 1407 1406 1404 1404 1403 1403 1402 1401 1401 1400 1399 1397 1396 1395 1393 1390 1390 1389 1388 1387 1386 1385 1384 1383 1381 1379 1377 1376 1376 1374 1371 1368 1366 1364 1362 1359 1357 1355
1422 1419 1417 1413 1410 1408 1407 1405 1404 1402 1402 1402 1400 1399 1397 1396 1395 1394 1392 1391 1388 1388 1388 1388 1386 1384 1382 1381 1379 1377 1375 1374 1373 1372 1369 1366 1364 1362 1360 1357 1355 1353 1351
1424 1420 1416 1413 1411 1409 1407 1404 1402 1400 1398 1397 1397 1396 1394 1393 1392 1390 1389 1387 1384 1384 1385 1385 1384 1382 1379 1377 1375 1373 1372 1370 1369 1366 1364 1362 1360 1357 1354 1352 1351 1349 1348
1423 1420 1417 1414 1411 1408 1405 1403 1401 1399 1397 1395 1394 1391 1390 1389 1388 1387 1385 1383 1381 1381 1381 1381 1380 1378 1375 1373 1371 1369 1367 1365 1362 1360 1358 1356 1354 1352 1351 1348 1347 1345 1343
1422 1420 1417 1414 1410 1407 1404 1402 1399 1397 1395 1393 1391 1388 1386 1385 1384 1384 1382 1380 1379 1378 1377 1376 1376 1374 1372 1369 1367 1364 1362 1360 1357 1355 1353 1351 1350 1348 1345 1343 1341 1339 1337
1422 1419 1416 1413 1409 1405 1403 1401 1399 1396 1394 1391 1389 1387 1385 1383 1382 1380 1379 1377 1376 1374 1373 1372 1371 1370 1367 1365 1362 1360 1357 1355 1353 1350 1348 1346 1344 1343 1340 1338 1336 1333 1331
1421 1417 1414 1411 1408 1405 1403 1401 1398 1395 1393 1390 1387 1385 1382 1380 1378 1376 1374 1372 1371 1369 1368 1367 1366 1365 1362 1360 1357 1355 1353 1350 1347 1345 1343 1341 1339 1338 1335 1333 1330 1326 1322
1420 1417 1414 1411 1409 1406 1404 1401 1397 1394 1391 1388 1385 1382 1379 1376 1373 1371 1369 1368 1366 1365 1364 1362 1361 1358 1356 1355 1352 1350 1348 1345 1342 1339 1337 1335 1334 1332 1330 1326 1322 1318 1314
1421 1418 1415 1412 1409 1406 1403 1400 1397 1393 1390 1386 1382 1379 1375 1372 1370 1367 1365 1363 1361 1359 1358 1356 1354 1352 1351 1349 1347 1345 1342 1339 1336 1334 1331 1329 1327 1325 1321 1317 1313 1309 1305
1422 1418 1415 1412 1408 1406 1402 1399 1396 1392 1388 1384 1380 1376 1372 1369 1366 1363 1360 1357 1354 1352 1351 1349 1347 1346 1345 1343 1341 1339 1336 1333 1330 1327 1324 1321 1319 1316 1313 1308 1305 1302 1299
1422 1417 1414 1410 1407 1404 1401 1397 1394 1390 1386 1382 1377 1373 1369 1365 1362 1358 1355 1351 1349 1347 1345 1343 1342 1340 1339 1338 1336 1333 1330 1327 1323 1320 1317 1314 1311 1307 1304 1301 1298 1294 1291
1420 1416 1412 1408 1405 1401 1398 1394 1391 1387 1383 1379 1375 1370 1366 1362 1358 1354 1350 1347 1344 1342 1340 1339 1337 1336 1334 1333 1331 1328 1325 1321 1317 1314 1311 1307 1303 1300 1297 1293 1290 1288 1284
1419 1414 1410 1406 1402 1398 1394 1391 1387 1383 1379 1376 1372 1367 1363 1359 1354 1350 1347 1344 1341 1339 1337 1335 1333 1332 1331 1329 1326 1322 1318 1315 1312 1309 1305 1300 1296 1292 1289 1286 1284 1281 1278